Terug naar catalogus

CZ-6A DEB

ActiefPO
NORAD 61317·DEBRIS·🇨🇳 China

Gelanceerd Aug 6, 2024 vanaf Taiyuan Satellite Launch Center

Loading…

Volgende Passages (komende 24 uur)

TLE

VersSource: Space-Track

Epoch: Sep 14, 2026, 09:46 UTC

1 61317U 24140UE  26257.40737749  .00001408  00000-0  86953-3 0  9999
2 61317  88.7085 242.0591 0128374 333.6597  25.8091 14.00881562104476

Volg CZ-6A DEB in realtime met AllMySat

Download on the App Store